Location: Newark
(22.3091°N, 72.0172°E)
Time: 12:06:51
(UTC+00:00)

Starlink L9 Placeholder - Visible Passes

Search period start: 15 July 2020 00:00
Search period end: 25 July 2020 00:00
Orbit: 388 x 401 km, 53.0° (Epoch: 11 July)

Date Brightness Start Highest point End Pass type
(mag) Time Alt. Az. Time Alt. Az. Time Alt. Az.
22 Jul 4.4 23:30:49 17° S 23:32:45 32° SE 23:35:38 10° ENE visible
23 Jul 5.9 22:38:38 11° ESE 22:38:38 11° ESE 22:39:21 10° E visible
24 Jul 4.3 00:11:20 10° WSW 00:14:03 25° NW 00:16:46 10° N visible
24 Jul 2.8 23:18:56 64° WSW 23:19:18 75° NW 23:22:29 10° NE visible
